Change the Weather History Date:

Saturday, November 3, 2012

  Actual Average Record
Temperature  
Mean Temperature 67 °F 60 °F  
Max Temperature 86 °F 73 °F 88 °F (1971)
Min Temperature 47 °F 47 °F 18 °F (1966)
Degree Days  
Heating Degree Days 0 7  
Month to date heating degree days 7 20  
Since 1 July heating degree days 162 122  
Cooling Degree Days 2 1  
Month to date cooling degree days 3 4  
Year to date cooling degree days 2391 2213  
Growing Degree Days 15 (Base 50)    
Moisture  
Dew Point 56 °F    
Average Humidity 69    
Maximum Humidity 100    
Minimum Humidity 37    
Precipitation  
Precipitation 0.00 in 0.15 in 2.69 in (1950)
Month to date precipitation 0.00 0.44  
Year to date precipitation 44.29 44.57  
Sea Level Pressure  
Sea Level Pressure 30.08 in    
Wind  
Wind Speed 4 mph (SW)    
Max Wind Speed 13 mph    
Max Gust Speed 21 mph    
Visibility 7 miles    
Events Fog    
T = Trace of Precipitation, MM = Missing Value Source: NWS Daily Summary

Daily Weather History Graph

Daily Weather History Graph

Search for Another Location

Airport or City:

Trip Planner

Search our weather history database for the weather conditions in past years. The results will help you decide how hot, cold, wet, or windy it might be!

Date:

Astronomy

Nov. 03, 2012 Rise Set
Actual Time 7:23 AM CDT 6:11 PM CDT
Civil Twilight 6:57 AM CDT 6:37 PM CDT
Nautical Twilight 6:28 AM CDT 7:06 PM CDT
Astronomical Twilight 6:00 AM CDT 7:34 PM CDT
Moon 9:58 PM CDT (11/3) 11:21 AM CDT (11/3)
Length of Visible Light 11h 39m
Length of Day
10h 48m
Waning Gibbous, 80% of the Moon is Illuminated
Nov 3
Waning Gibbous
Nov 6
Last Quarter
Nov 13
New
Nov 20
First Quarter
Nov 28
Full

Hourly Weather History & Observations

Time (CDT) Temp. Heat Index Dew Point Humidity Pressure Visibility Wind Dir Wind Speed Gust Speed Precip Events Conditions
12:53 AM 57.9 °F - 55.0 °F 90% 30.05 in 10.0 mi Calm Calm - N/A   Clear
1:53 AM 66.0 °F - 60.1 °F 81% 30.06 in 10.0 mi SW 3.5 mph - N/A   Clear
2:53 AM 63.0 °F - 59.0 °F 87% 30.06 in 10.0 mi Calm Calm - N/A   Clear
3:53 AM 55.0 °F - 53.1 °F 93% 30.06 in 10.0 mi Calm Calm - N/A   Clear
4:53 AM 51.1 °F - 50.0 °F 96% 30.08 in 4.0 mi Calm Calm - N/A   Clear
5:06 AM 51.8 °F - 51.8 °F 100% 30.06 in 1.8 mi Calm Calm - N/A   Clear
5:12 AM 50.0 °F - 50.0 °F 100% 30.06 in 3.0 mi Calm Calm - N/A   Clear
5:53 AM 48.0 °F - 48.0 °F 100% 30.10 in 9.0 mi Calm Calm - N/A   Clear
6:09 AM 48.2 °F - 46.4 °F 93% 30.08 in 2.5 mi Calm Calm - N/A   Partly Cloudy
6:11 AM 48.2 °F - 46.4 °F 93% 30.08 in 1.0 mi Calm Calm - N/A   Mist
6:18 AM 46.4 °F - 46.4 °F 100% 30.08 in 0.2 mi Calm Calm - N/A Fog Fog
6:30 AM 50.0 °F - 48.2 °F 94% 30.09 in 0.2 mi Calm Calm - N/A Fog Fog
6:53 AM 48.9 °F - 48.9 °F 100% 30.11 in 0.2 mi SE 3.5 mph - N/A Fog Fog
7:18 AM 57.2 °F - 57.2 °F 100% 30.10 in 0.2 mi South 3.5 mph - N/A Fog Fog
7:53 AM 61.0 °F - 60.1 °F 97% 30.13 in 0.2 mi Calm Calm - N/A Fog Fog
8:53 AM 62.1 °F - 62.1 °F 100% 30.15 in 0.2 mi Calm Calm - N/A Fog Fog
9:30 AM 64.4 °F - 64.4 °F 100% 30.13 in 1.8 mi Calm Calm - N/A   Overcast
9:34 AM 64.4 °F - 64.4 °F 100% 30.13 in 3.0 mi Calm Calm - N/A   Overcast
9:53 AM 66.0 °F - 64.9 °F 96% 30.16 in 10.0 mi Variable 3.5 mph - N/A   Scattered Clouds
10:53 AM 75.0 °F - 66.0 °F 73% 30.16 in 10.0 mi Variable 6.9 mph - N/A   Clear
11:53 AM 80.1 °F 81.9 °F 64.9 °F 60% 30.14 in 10.0 mi WSW 9.2 mph 17.3 mph N/A   Clear
12:53 PM 82.0 °F 83.0 °F 62.1 °F 51% 30.11 in 10.0 mi West 9.2 mph 16.1 mph N/A   Partly Cloudy
1:53 PM 82.0 °F 82.7 °F 61.0 °F 49% 30.08 in 10.0 mi West 8.1 mph - N/A   Clear
2:53 PM 84.9 °F 83.9 °F 57.0 °F 38% 30.05 in 10.0 mi SW 8.1 mph - N/A   Clear
3:53 PM 84.9 °F 83.6 °F 55.0 °F 36% 30.04 in 10.0 mi Variable 4.6 mph - N/A   Clear
4:53 PM 82.9 °F 82.0 °F 55.0 °F 38% 30.03 in 10.0 mi WSW 8.1 mph - N/A   Clear
5:53 PM 80.1 °F 80.2 °F 55.9 °F 43% 30.04 in 10.0 mi SW 3.5 mph - N/A   Clear
6:53 PM 75.0 °F - 57.0 °F 53% 30.04 in 10.0 mi SSW 4.6 mph - N/A   Clear
7:53 PM 72.0 °F - 57.9 °F 61% 30.06 in 10.0 mi South 4.6 mph - N/A   Clear
8:53 PM 66.9 °F - 55.9 °F 68% 30.05 in 10.0 mi SSW 3.5 mph - N/A   Clear
9:53 PM 60.1 °F - 53.1 °F 78% 30.06 in 10.0 mi Calm Calm - N/A   Clear
10:53 PM 66.0 °F - 57.0 °F 73% 30.07 in 10.0 mi South 3.5 mph - N/A   Clear
11:53 PM 62.1 °F - 57.0 °F 84% 30.08 in 10.0 mi Calm Calm - N/A   Clear